Location: Madden
(51.3728°N, 114.3297°W)
Time: 06:45:24
(UTC+00:00)

PCSat - Pass Details

Date: 06 December 2023
Orbit: 784 x 791 km, 67.0° (Epoch: 02 March)

Event Time Altitude Azimuth Distance (km) Brightness Sun altitude
Exits shadow 13:38:32 25° 292° (WNW) 1,545 10.5 -15.9°
Maximum altitude 13:40:20 31° 326° (NW) 1,367 10.4 -15.6°
Drops below altitude 10° 13:45:07 10° 28° (NNE) 2,363 12.2 -14.9°
Sets 13:47:49 0° 39° (NE) 3,296 13.1 -14.5°
